Retour au catalogue

STARLINK-30116

ActifCommunicationsVLEO
NORAD 57465·PAYLOAD·🇺🇸 United States

Lancé Jul 28, 2023 depuis Cape Canaveral Space Force Station

Loading…

Prochains Passages (prochaines 24 heures)

TLE

FraisSource: CelesTrak SupGP

Époque: Sep 14, 2026, 20:41 UTC

1 57465C 23107J   26257.86229167 -.00047645  00000+0 -17249-2 0  2572
2 57465  43.0038 347.8887 0001925 270.4931 214.1915 15.27616376    13

Suivez STARLINK-30116 en temps réel avec AllMySat

Download on the App Store